Hourly Weather Roundup
Issued by NWS Central Illinois

Home | Current Version | Previous Version | Text Only | Print | Product List | Glossary On
Versions: 1 2 3 4 5 6 7 8 9 10 11 12 13 14 15 16 17 18 19 20 21 22 23 24 25 26 27 28 29 30 31 32 33 34 35 36 37 38 39 40 41 42 43 44 45 46 47 48 49 50
000
NZUS43 KILX 260510
HWRILX

AREA WEATHER ROUNDUP
NATIONAL WEATHER SERVICE, LINCOLN IL
1200 AM CDT SUN MAR 26 2017


CITY           SKY/WX    TMP DP  RH WIND       PRES   REMARKS
BLOOMINGTON    CLOUDY    58  55  90 SE14      29.87F
CHAMPAIGN      CLOUDY    59  53  80 SE8       29.88F
DECATUR        MOCLDY    60  54  80 S10       29.86F
EFFINGHAM      LGT RAIN  60  56  87 SE5       29.90S
FLORA          LGT RAIN  60  57  91 S9        29.89F
GALESBURG      CLOUDY    57  57  99 E5        29.82S
JACKSONVILLE   MOCLDY    55  52  89 S12       29.83S
LACON          CLOUDY    53  53 100 E8        29.86F FOG
LAWRENCEVILLE  CLOUDY    62  57  83 S12       29.92S
LITCHFIELD     CLOUDY    55  54  95 S9        29.86S
$$


CITY           SKY/WX    TMP DP  RH WIND       PRES   REMARKS
LINCOLN        CLOUDY    59  57  96 SE10G16   29.85F
MACOMB         CLOUDY    57  56  97 SE9       29.83F
MATTOON        MOCLDY    60  54  80 S7        29.88F
MT CARMEL AP   CLOUDY    62  55  77 S13       29.91S
OLNEY-NOBLE AP CLOUDY    61  59  94 S16G22    29.90S
PARIS          CLOUDY    58  55  91 SE5       29.91F
PEORIA         CLOUDY    59  57  93 E9        29.84F
PONTIAC        CLOUDY    57  56  97 E12       29.89F FOG
RANTOUL        CLOUDY    58  55  91 SE6       29.89F
SPRINGFIELD    CLOUDY    59  56  89 S12       29.84S
TAYLORVILLE    CLOUDY    57  55  94 S12       29.85S
$$

...REGIONAL REPORTS...


CITY           SKY/WX    TMP DP  RH WIND       PRES   REMARKS
CHICAGO O`HARE LGT RAIN  46  43  89 NE9       29.94F FOG
KANKAKEE       CLOUDY    55  55  97 E6        29.92F
MOLINE         CLOUDY    47  45  93 E13       29.86F FOG
MOUNT STERLING CLOUDY    54  52  94 SE9       29.80F
MOUNT VERNON   CLOUDY    58  56  93 S7        29.89F
PITTSFIELD     CLOUDY    55  54  95 SE10      29.82F
QUINCY         MOCLDY    56  55  97 SE8       29.79S
ROCKFORD       CLOUDY    45  43  93 NE10      29.95F FOG
$$


CITY           SKY/WX    TMP DP  RH WIND       PRES   REMARKS
BURLINGTON     CLOUDY    58  57  97 E8        29.80F
CEDAR RAPIDS   CLOUDY    42  42 100 NE14      29.85F FOG     WCI  35
DES MOINES     DRIZZLE   42  41  96 N7        29.89F FOG
KIRKSVILLE     CLOUDY    47  47 100 NW8       29.82F
OTTUMWA        FOG       47  47 100 N9        29.84F VSB 1/4
ST LOUIS       MOCLDY    57  52  83 SW10      29.85S
$$


CITY           SKY/WX    TMP DP  RH WIND       PRES   REMARKS
TERRE HAUTE    LGT RAIN  60  56  86 SE9       29.92S
EVANSVILLE     RAIN      61  57  87 S12G21    29.93F
INDIANAPOLIS   CLOUDY    58  57  97 E8        29.96R
LAFAYETTE      CLOUDY    60  56  86 SE7       29.92F
MADISON        LGT RAIN  39  38  96 NE12      29.98F WCI  32
MILWAUKEE      CLOUDY    39  37  92 NE12      30.02F FOG     WCI  32
$$





USA.gov is the U.S. government's official web portal to all federal, state and local government web resources and services.